Weather Roundup
Issued by NWS Chicago, IL

Home | Current Version | Previous Version | Text Only | Print | Product List | Glossary Off
Versions: 1 2 3 4 5 6 7 8 9 10 11 12 13 14 15 16 17 18 19 20 21 22 23 24 25 26 27 28 29 30 31 32 33 34 35 36 37 38 39 40 41 42 43 44 45 46 47 48 49 50

000
NZUS59 KLOT 291806
HRRLOT

CHICAGO AREA WEATHER ROUNDUP
NATIONAL WEATHER SERVICE CHICAGO/ROMEOVILLE IL
100 PM CDT SAT AUG 29 2015

NOTE: "FAIR" INDICATES FEW OR NO CLOUDS BELOW 12,000 FEET WITH NO
SIGNIFICANT WEATHER AND/OR OBSTRUCTIONS TO VISIBILITY.

* THESE STATIONS ARE NOT UNDER NWS QUALITY CONTROL. THEY ALSO MAY NOT
  REPORT WEATHER SUCH AS PRECIPITATION OR FOG.

ILZ005-006-012>014-019>023-291900-
NORTHEAST ILLINOIS

CITY           SKY/WX    TMP DP  RH WIND       PRES   REMARKS
OHARE          LGT RAIN  67  65  93 S7        30.00F FOG
6HR MIN TEMP:  63; 6HR MAX TEMP:  67; 6HR PCP:  0.12;

MIDWAY         CLOUDY    74  65  73 S7        30.02F
6HR MIN TEMP:  66; 6HR MAX TEMP:  74; 6HR PCP:  0.07;

AURORA         LGT RAIN  68  66  93 SE6       30.03F FOG
6HR MIN TEMP:  64; 6HR MAX TEMP:  69; 6HR PCP:  0.65;

WAUKEGAN       CLOUDY    65  64  97 VRB6      30.02F FOG
6HR MIN TEMP:  60; 6HR MAX TEMP:  65; 6HR PCP:  0.63;

DUPAGE AIRPORT LGT RAIN  67  64  90 S6        30.02F FOG
6HR MIN TEMP:  64; 6HR MAX TEMP:  67; 6HR PCP:  0.63;

WHEELING       CLOUDY    68  65  90 CALM      30.03S FOG
6HR MIN TEMP:  63; 6HR MAX TEMP:  68; 6HR PCP:  0.33;

NORTHERLY IS     N/A     69  64  84 SW8         N/A
$$

WIZ051-052-058>065-066-070>072-291900-
SOUTHEAST WISCONSIN

CITY           SKY/WX    TMP DP  RH WIND       PRES   REMARKS
MILWAUKEE      CLOUDY    64  61  90 SE6       30.04F
6HR MIN TEMP:  57; 6HR MAX TEMP:  64; 6HR PCP:  0.09;

KENOSHA*       CLOUDY    68  65  90 SE8       30.03F
RACINE*        CLOUDY    65  61  87 SE8       30.05F FOG
WAUKESHA       CLOUDY    61  61 100 SE5       30.05F FOG
$$

INZ001>003-010>013-019-020-291900-
NORTHWEST INDIANA

CITY           SKY/WX    TMP DP  RH WIND       PRES   REMARKS
GARY*          CLOUDY    75  64  69 S6        30.05S
MICHIGAN CITY* NOT AVBL
RENSSELAER*    NOT AVBL
$$

LMZ740>746-291900-
SOUTHERN LAKE MICHIGAN

STATION/POSITION TIME  SKY/WX   TEMP WIND        PRES    VSBY
                                AIR  DIR/SP/G
                 (UTC)          (F)  (DEG/KT/KT) (MB)    (MI)
HARRISON CRIB    1700            67  140/ 13/ 15   N/A
BURNHAM HARBOR   1800            71  210/ 10/ 10   N/A
CALUMET HARBOR   NOT AVBL
BURNS HARBOR     1700            71  170/  8/ 15 1017.9S
MICHIGAN CITY    1700            67  100/  8/ 10   N/A
$$

ABBREVIATIONS USED IN REMARKS
   TC - TEMPERATURE IN CELSIUS
  WCI - WIND CHILL INDEX
   HX - HEAT INDEX
  VSB - VISIBILITY
$$


USA.gov is the U.S. government's official web portal to all federal, state and local government web resources and services.